,

(GMT )
Culdrose

Weather History for EGDR - January, 2014

Change the Weather History Date:

Wednesday, January 29, 2014

  Actual Average Record
Temperature  
Mean Temperature 42 °F -  
Max Temperature 46 °F 47 °F 53 °F (1999)
Min Temperature 35 °F 39 °F 24 °F (2011)
Degree Days  
Heating Degree Days 23    
Moisture  
Dew Point 40 °F    
Average Humidity 86    
Maximum Humidity 100    
Minimum Humidity 69    
Precipitation  
Precipitation 0.08 in - - ()
Sea Level Pressure  
Sea Level Pressure 29.32 in    
Wind  
Wind Speed 10 mph ()    
Max Wind Speed 17 mph    
Max Gust Speed 30 mph    
Visibility 7.6 miles    
Events Rain    
Averages and records for this station are not official NWS values.
T = Trace of Precipitation, MM = Missing Value Source: Averaged Metar Reports

Daily Weather History Graph

Daily Weather History Graph

Search for Another Location

Airport or City:

Trip Planner

Search our weather history database for the weather conditions in past years. The results will help you decide how hot, cold, wet, or windy it might be!

Date:

Astronomy

Jan. 29, 2014 Rise Set
Actual Time 7:59 AM GMT 5:09 PM GMT
Civil Twilight 7:23 AM GMT 5:45 PM GMT
Nautical Twilight 6:44 AM GMT 6:24 PM GMT
Astronomical Twilight 6:06 AM GMT 7:02 PM GMT
Moon 6:25 AM GMT (1/29) 3:51 PM GMT (1/29)
Length of Visible Light 10h 21m
Length of Day
9h 10m
Waning Crescent, 3% of the Moon is Illuminated
Jan 29
Waning Crescent
Jan 30
New
Feb 6
First Quarter
Feb 14
Full
Feb 22
Last Quarter

Hourly Weather History & Observations

Time (GMT) Temp. Windchill Dew Point Humidity Pressure Visibility Wind Dir Wind Speed Gust Speed Precip Events Conditions
12:00 AM 43 °F - 40 °F 87% 29.15 in 7 mi North 10.4 mph - - Rain Light Rain Showers
12:50 AM 42.8 °F 37.5 °F 39.2 °F 87% 29.15 in 6.2 mi North 9.2 mph - N/A   Partly Cloudy
1:00 AM 43 °F - 39 °F 79% 29.17 in 12 mi North 9.2 mph - - Rain Light Rain Showers
1:50 AM 42.8 °F 38.0 °F 39.2 °F 87% 29.18 in 3.1 mi North 8.1 mph - N/A Rain Light Rain Showers
2:00 AM 42 °F - 39 °F 84% 29.20 in 3 mi North 8.1 mph - - Rain Light Rain Showers
2:50 AM 41.0 °F 36.4 °F 39.2 °F 93% 29.18 in 6.2 mi North 6.9 mph - N/A   Partly Cloudy
3:00 AM 42 °F - 40 °F 88% 29.21 in 9 mi North 6.9 mph - - Rain Light Rain Showers
3:50 AM 42.8 °F 36.6 °F 37.4 °F 81% 29.21 in 6.2 mi North 11.5 mph - N/A   Partly Cloudy
4:00 AM 42 °F - 37 °F 77% 29.22 in 11 mi North 11.5 mph - - Rain Light Rain Showers
4:50 AM 41.0 °F 35.2 °F 37.4 °F 87% 29.21 in 6.2 mi NNW 9.2 mph - N/A   Partly Cloudy
5:00 AM 42 °F - 37 °F 75% 29.24 in 12 mi NNW 9.2 mph - - Rain Light Rain Showers
5:50 AM 41.0 °F 35.8 °F 37.4 °F 87% 29.24 in 6.2 mi NNW 8.1 mph - N/A   Partly Cloudy
6:00 AM 42 °F - 38 °F 79% 29.26 in 12 mi NNW 8.1 mph - -   Partly Cloudy
6:50 AM 41.0 °F 34.7 °F 37.4 °F 87% 29.24 in 6.2 mi NNW 10.4 mph - N/A   Partly Cloudy
7:00 AM 41 °F - 37 °F 81% 29.27 in 12 mi NNW 10.4 mph - -   Partly Cloudy
7:50 AM 42.8 °F 36.6 °F 39.2 °F 87% 29.27 in 6.2 mi North 11.5 mph - N/A   Scattered Clouds
8:00 AM 42 °F - 39 °F 87% 29.29 in 10 mi North 11.5 mph - - Rain Light Rain Showers
8:50 AM 42.8 °F 38.0 °F 39.2 °F 87% 29.30 in 6.2 mi NNW 8.1 mph - N/A   Mostly Cloudy
9:00 AM 43 °F - 40 °F 83% 29.31 in 10 mi NNW 8.1 mph - - Rain Light Rain Showers
9:50 AM 42.8 °F 36.6 °F 41.0 °F 93% 29.30 in 6.2 mi NNW 11.5 mph - N/A Rain Light Rain Showers
10:00 AM 43 °F - 40 °F 86% 29.33 in 6 mi NNW 11.5 mph - - Rain Light Rain Showers
10:50 AM 44.6 °F 39.7 °F 41.0 °F 87% 29.33 in 6.2 mi NNW 9.2 mph - N/A   Mostly Cloudy
11:00 AM 44 °F - 41 °F 83% 29.34 in 11 mi NNW 9.2 mph - - Rain Light Rain Showers
11:50 AM 44.6 °F 39.2 °F 42.8 °F 93% 29.33 in 6.2 mi NNW 10.4 mph - N/A   Mostly Cloudy
12:00 PM 45 °F - 42 °F 85% 29.35 in 6 mi NNW 10.4 mph - - Rain Light Rain Showers
12:50 PM 46.4 °F 39.5 °F 41.0 °F 81% 29.33 in 6.2 mi NNW 17.3 mph 29.9 mph N/A   Scattered Clouds
1:00 PM 46 °F - 40 °F 74% 29.35 in 10 mi NNW 17.3 mph - -   Mostly Cloudy
1:50 PM 44.6 °F 37.4 °F 41.0 °F 87% 29.33 in 6.2 mi NNW 16.1 mph - N/A   Scattered Clouds
2:00 PM 45 °F - 42 °F 83% 29.35 in 6 mi NNW 16.1 mph - - Rain Light Rain Showers
2:50 PM 46.4 °F 39.5 °F 39.2 °F 76% 29.33 in 6.2 mi NNW 17.3 mph 29.9 mph N/A   Haze
3:00 PM 46 °F - 39 °F 69% 29.36 in 9 mi NNW 17.3 mph - -   Haze
3:50 PM 44.6 °F 38.8 °F 41.0 °F 87% 29.36 in 3.7 mi NNW 11.5 mph 25.3 mph N/A Rain Light Rain Showers
4:00 PM 44 °F - 41 °F 85% 29.38 in 4 mi NNW 11.5 mph - - Rain Light Rain Showers
4:50 PM 44.6 °F 37.8 °F 41.0 °F 87% 29.36 in 6.2 mi NNW 15.0 mph - N/A   Scattered Clouds
5:00 PM 44 °F - 40 °F 83% 29.39 in 10 mi NNW 15.0 mph - - Rain Light Rain Showers
5:50 PM 42.8 °F 35.4 °F 41.0 °F 93% 29.39 in 6.2 mi NNW 15.0 mph - N/A   Scattered Clouds
6:00 PM 44 °F - 40 °F 81% 29.39 in 10 mi NNW 15.0 mph - - Rain Light Rain Showers
6:50 PM 42.8 °F 35.4 °F 41.0 °F 93% 29.39 in 6.2 mi NNW 15.0 mph - N/A Rain Light Rain Showers
7:00 PM 43 °F - 41 °F 89% 29.41 in 7 mi NNW 15.0 mph - - Rain Light Rain Showers
7:50 PM 42.8 °F 37.5 °F 41.0 °F 93% 29.39 in 6.2 mi North 9.2 mph - N/A   Partly Cloudy
8:00 PM 43 °F - 41 °F 89% 29.42 in 12 mi North 9.2 mph - - Rain Light Rain Showers
8:50 PM 42.8 °F 35.8 °F 39.2 °F 87% 29.42 in 6.2 mi North 13.8 mph - N/A   Partly Cloudy
9:00 PM 42 °F - 40 °F 89% 29.44 in 12 mi North 13.8 mph - -   Partly Cloudy
9:50 PM 41.0 °F 33.1 °F 39.2 °F 93% 29.44 in 6.2 mi NE 15.0 mph - N/A   Mostly Cloudy
10:00 PM 41 °F - 38 °F 87% 29.47 in 12 mi NE 15.0 mph - -   Mostly Cloudy
10:50 PM 39.2 °F 33.0 °F 37.4 °F 93% 29.47 in 6.2 mi NE 9.2 mph - N/A   Haze
11:00 PM 38 °F - 37 °F 93% 29.49 in 9 mi NE 9.2 mph - -   Haze
11:50 PM 35.6 °F 29.9 °F 35.6 °F 100% 29.50 in - NE 6.9 mph - N/A   Clear